Back to catalog

STARLINK-34289

AliveCommunicationsVLEO
NORAD 64225·PAYLOAD·🇺🇸 United States

Launched May 31, 2025 from Vandenberg Space Force Base

Loading…

Next Passes (next 24 hours)

TLE

FreshSource: CelesTrak SupGP

Epoch: Sep 14, 2026, 14:16 UTC

1 64225C 25117Y   26257.59493056 -.00033348  00000+0 -98567-3 0  2575
2 64225  53.1578 239.1170 0001316  88.0893 170.0025 15.34394953    12

Track STARLINK-34289 in real time with AllMySat

Download on the App Store